Simultaneous Nadir Overpasses (SNOs) Predictions

Prediction of SNOs between GOES-15 and LANDSAT-8 Satellite Orbit:

Table of predicted SNOs for the next 14.0 days since TLE Epoch: 12/23/2023
Index Date Time (GOES-15) GOES-15 Lat,Lon LANDSAT-8 Lat,Lon Distance(km) Time Diff (sec)
1 12/24/2023 18:05:58 0.08, 61.30 0.09, 61.28 2.49 80
2 12/26/2023 17:53:46 0.08, 61.32 0.73, 64.24 332.16 80
3 12/27/2023 06:15:00 -0.07, 61.30 0.39, 59.09 251.58 80
4 12/29/2023 06:05:27 -0.06, 61.33 -0.21, 62.05 82.52 80
5 12/31/2023 05:53:14 -0.06, 61.35 -0.83, 65.02 416.78 80
6 12/31/2023 18:14:38 0.05, 61.37 -0.26, 59.82 175.59 80
7 01/02/2024 17:59:44 0.05, 61.40 0.33, 62.80 158.34 80
8 01/03/2024 06:20:59 -0.04, 61.40 0.77, 57.64 427.72 80
9 01/04/2024 17:47:30 0.05, 61.43 0.94, 65.77 492.11 80
10 01/05/2024 06:08:45 -0.04, 61.43 0.15, 60.61 93.80 80
